Theta_e
313 314 312 311 311 310 312 312 312 312 312 312 312 313 314 313 313 314 314 315 314 314 313 313 313 313 304 292 292 303 309 309 306 308 303 302 296 298 296 297 300 300 303 305 306 303 303
313 315 312 311 311 310 311 311 311 311 311 311 313 312 312 313 314 314 314 314 314 314 313 313 312 312 297 286 301 302 304 304 303 300 302 302 298 299 294 294 296 297 298 298 303 305 304
314 314 313 313 312 311 311 311 311 310 310 313 312 311 312 313 314 314 314 314 314 314 313 313 312 307 297 292 300 301 302 301 302 301 297 299 302 298 297 290 295 295 292 296 298 303 304
315 314 313 314 313 311 311 310 310 310 310 312 311 311 311 312 312 313 313 313 313 313 312 312 312 301 291 301 301 301 301 299 301 302 300 301 302 299 296 295 291 289 292 288 296 300 302
316 314 314 313 314 311 310 310 309 309 311 311 311 311 311 311 311 311 311 311 312 311 311 311 302 296 290 305 298 302 301 297 299 299 299 301 298 293 294 286 283 285 280 286 289 298 301
317 315 314 313 313 311 310 309 309 308 311 311 311 311 311 310 311 311 312 310 310 308 307 306 305 295 296 293 299 300 300 300 297 297 295 293 291 287 288 282 274 277 278 282 284 295 300
316 314 314 314 313 311 310 309 308 308 311 311 310 310 310 311 311 311 304 297 292 290 296 290 290 291 293 298 301 298 300 299 298 294 287 290 284 280 283 285 282 282 281 279 283 291 292
315 315 313 314 313 312 310 308 308 308 310 311 310 311 310 311 311 310 300 293 293 294 288 292 293 294 297 298 292 295 302 293 293 287 291 287 282 285 286 285 284 283 281 280 283 286 287
315 316 314 313 313 312 310 308 308 308 309 310 310 310 310 310 310 301 296 295 304 297 286 288 291 292 294 296 291 291 298 295 291 288 287 284 285 288 285 282 281 282 281 280 280 284 286
316 315 315 314 313 312 310 309 308 307 309 310 310 310 310 309 299 296 294 302 300 300 280 280 287 295 298 298 289 300 300 296 291 287 288 287 289 286 283 282 282 278 284 283 282 281 276
315 315 314 314 313 312 311 309 308 307 308 310 309 310 309 307 294 293 297 299 298 298 265 282 287 298 295 290 291 295 301 295 289 289 289 283 285 285 284 284 284 281 286 284 283 281 279
315 314 314 313 313 312 310 309 308 307 308 309 309 309 308 298 294 296 298 297 297 273 264 276 285 285 285 289 292 296 295 297 296 290 290 287 292 289 287 288 287 288 284 284 283 280 274
315 314 314 313 313 311 309 309 308 307 308 309 309 308 304 300 290 297 296 290 271 267 277 276 279 284 284 284 288 291 290 288 285 281 280 286 287 291 290 285 288 285 283 274 273 273 272
315 314 313 313 312 311 309 308 308 307 308 308 308 302 300 300 297 296 290 277 263 263 268 281 283 283 281 288 287 290 288 286 290 287 283 277 274 285 290 287 284 284 283 275 266 268 272
314 313 312 313 312 311 309 308 308 308 308 308 302 292 293 296 298 294 283 265 266 269 278 282 282 275 276 285 285 286 287 286 288 288 281 281 276 287 290 290 288 284 280 284 277 276 275
314 313 311 312 311 310 309 309 308 308 308 306 290 289 291 295 295 289 276 271 269 281 284 287 279 279 274 280 283 283 285 291 289 292 290 284 278 285 288 288 288 286 287 278 279 267 271
313 312 311 312 311 310 309 309 307 308 308 302 289 284 291 294 292 284 269 267 276 284 286 282 281 279 282 282 282 283 285 288 291 290 291 286 282 280 286 284 281 283 282 284 282 280 274
313 311 310 311 311 309 309 308 307 308 307 295 284 274 290 291 278 267 268 274 285 284 285 286 288 286 284 284 283 283 284 286 292 291 285 288 284 280 282 286 288 286 283 285 278 276 279
312 311 310 311 310 309 309 308 307 308 304 288 278 280 290 289 271 266 272 281 283 284 284 285 285 288 287 285 280 283 285 288 290 288 288 289 283 278 281 284 288 284 287 285 286 284 280
312 311 310 310 310 309 309 308 308 309 303 287 279 274 279 286 279 274 274 274 278 284 284 285 285 288 286 280 285 279 282 286 288 289 293 292 285 282 279 282 286 284 285 287 285 281 282
311 310 310 310 309 309 308 308 308 309 303 287 278 273 274 274 274 277 279 279 280 275 284 285 282 285 282 277 273 275 282 283 287 290 288 289 282 284 284 285 284 282 282 285 285 286 284
311 310 310 309 309 308 308 308 308 308 301 286 277 276 275 273 280 280 281 273 280 281 282 281 281 282 282 280 279 273 280 282 284 287 286 289 282 284 282 285 284 279 281 282 282 282 285
311 310 310 309 308 307 308 308 308 307 299 284 281 282 281 281 279 276 273 278 281 283 283 284 283 282 281 282 283 284 285 285 285 284 285 285 284 280 279 283 283 277 280 281 282 283 283
311 310 310 309 308 307 308 307 308 306 297 287 284 282 278 268 280 277 280 281 281 282 281 282 283 282 283 284 284 283 285 284 285 285 286 282 283 280 275 280 272 281 286 286 282 282 284
311 310 309 308 307 307 307 307 307 306 300 289 286 284 279 267 277 278 279 280 281 281 281 282 283 283 283 282 276 267 267 270 273 278 279 283 282 275 271 272 281 282 285 283 281 280 285
311 310 309 307 307 307 307 307 307 307 302 291 287 286 282 277 274 283 280 281 274 270 271 275 282 283 283 278 266 259 262 267 265 269 279 281 280 277 267 268 268 282 286 286 285 279 286
310 310 308 307 307 307 307 306 307 307 304 293 288 288 284 277 277 282 278 278 281 277 272 273 278 279 281 267 260 258 261 271 261 262 267 268 271 275 276 271 275 283 284 285 277 281 286
310 309 308 307 306 306 306 306 306 307 305 295 289 288 286 277 281 282 284 281 280 279 274 276 275 275 269 264 261 262 260 267 268 268 270 273 266 265 271 266 269 284 283 281 284 285 284
310 309 307 306 306 306 306 306 306 307 304 296 289 290 287 283 280 286 285 283 284 283 281 281 278 278 278 272 271 271 263 269 263 263 274 268 276 271 276 277 283 283 283 284 285 285 284
Wind_Speed
6 5 4 2 3 3 4 5 7 9 11 13 13 14 14 15 15 15 14 12 12 11 10 9 9 10 3 5 6 5 10 9 6 2 3 2 2 1 4 2 4 5 4 5 5 7 6
8 7 6 4 4 1 3 5 7 9 11 11 12 13 14 16 15 14 11 11 10 9 8 9 7 7 2 3 2 3 8 8 8 5 3 3 1 1 2 2 2 6 5 6 5 7 4
8 8 7 6 5 2 3 5 7 8 10 12 10 12 13 14 14 12 8 7 8 7 6 8 6 2 3 11 3 3 3 3 2 2 2 2 2 4 2 4 5 5 6 10 2 1 5
10 10 7 7 7 4 3 5 7 9 10 9 9 10 12 13 13 12 10 7 6 5 5 6 5 2 6 4 2 4 2 1 2 2 4 2 1 3 2 2 6 5 1 4 3 7 7
13 10 8 6 6 3 3 6 7 8 10 7 9 10 11 12 12 12 11 9 6 4 5 6 2 3 7 4 3 3 1 3 3 3 1 2 3 2 1 4 2 2 5 11 9 12 8
14 12 9 8 6 5 4 5 7 9 9 5 7 9 11 12 13 14 13 7 3 2 2 0 1 2 3 3 3 2 3 2 3 3 4 2 3 2 3 4 7 6 5 5 8 2 6
12 12 10 10 8 7 5 5 5 8 8 6 6 8 11 13 16 12 6 3 5 5 2 6 1 2 1 3 1 2 2 3 2 1 2 2 3 10 13 10 2 3 3 5 4 3 7
11 13 12 11 10 9 8 5 5 8 9 6 7 8 10 13 15 7 3 4 3 3 7 3 6 5 5 4 5 4 4 2 3 5 2 2 9 11 4 6 8 7 10 17 3 8 6
14 14 14 11 11 10 9 6 5 7 8 7 7 8 10 13 9 5 2 3 4 4 1 5 2 2 3 5 5 5 9 4 6 6 8 8 7 2 9 4 8 16 14 6 8 5 11
16 14 13 11 11 12 10 7 6 7 6 7 7 8 9 13 5 3 1 2 3 1 3 6 2 1 2 2 4 6 10 4 3 4 7 9 10 16 6 11 14 15 12 16 7 5 6
17 16 14 12 12 12 10 8 7 7 6 6 5 5 7 6 2 0 1 3 2 2 6 4 2 3 3 2 6 2 2 3 5 6 3 6 7 9 17 20 12 10 8 13 12 14 4
19 17 16 15 12 13 11 9 8 7 7 5 3 3 4 3 2 2 4 3 1 8 5 6 2 4 6 3 3 1 2 2 2 6 13 17 3 8 13 11 17 1 7 4 4 5 10
20 19 17 16 14 14 12 10 9 8 7 4 2 2 1 3 2 1 3 4 8 6 4 8 3 4 6 4 3 3 3 4 4 5 6 5 20 13 11 10 13 14 7 3 5 7 9
22 20 16 17 16 15 14 11 10 8 6 2 1 3 3 0 1 2 4 7 7 4 6 3 4 6 4 6 2 3 3 3 8 7 5 4 9 11 13 18 9 19 12 6 7 4 11
24 21 20 18 18 16 14 12 11 8 5 3 4 2 2 3 2 3 7 6 9 7 3 5 5 5 5 3 1 5 4 3 1 5 4 6 8 3 8 7 12 7 10 10 3 4 7
25 23 21 19 19 17 14 12 11 8 7 7 4 2 1 7 2 5 7 4 3 4 2 1 3 2 3 4 3 6 4 2 3 3 6 4 10 2 0 5 5 0 5 4 3 4 6
27 25 23 21 21 19 16 14 13 10 9 8 4 4 3 5 3 6 4 7 4 6 4 1 1 3 4 4 3 2 5 4 5 7 10 8 5 5 3 5 8 5 4 4 5 2 4
28 26 25 23 23 21 19 17 16 13 13 7 3 2 3 2 5 2 2 6 3 3 3 2 2 4 3 5 5 3 4 3 7 8 10 2 5 6 3 3 5 10 7 5 4 5 4
30 27 27 25 24 23 21 18 18 16 16 5 4 2 2 3 3 2 5 3 3 3 4 3 3 5 2 4 5 4 4 6 7 9 5 5 4 6 2 0 3 8 10 11 7 2 5
30 30 27 26 25 24 21 21 19 19 15 6 4 2 4 3 0 6 4 4 2 4 3 3 3 1 3 3 6 5 4 5 13 6 19 9 3 3 3 4 3 4 5 16 13 4 3
32 31 29 28 26 25 23 21 21 20 17 6 3 4 3 4 3 3 4 5 2 3 4 4 2 3 2 4 5 4 3 8 7 6 12 6 4 2 3 4 9 12 11 4 10 5 2
33 32 30 29 28 27 25 24 21 21 17 5 7 6 1 3 3 5 1 5 7 3 5 4 4 2 4 6 7 5 1 3 5 9 6 6 5 3 2 3 10 18 20 14 9 8 7
33 33 31 30 30 28 27 26 24 25 12 4 2 1 4 5 3 4 6 5 7 5 4 3 3 1 4 9 6 8 6 8 10 9 5 5 6 5 3 7 4 7 11 12 5 10 5
35 35 34 33 32 30 29 28 26 29 11 5 4 4 5 2 5 5 3 5 7 4 2 2 3 3 1 5 7 4 7 10 10 12 7 6 7 2 4 3 7 1 4 5 9 9 9
36 35 35 33 32 31 31 29 28 30 17 4 4 4 4 3 3 2 4 4 3 3 2 3 3 2 3 5 5 7 6 7 4 5 6 5 4 4 4 4 4 3 3 4 5 6 11
37 37 37 35 33 32 31 30 28 29 23 5 3 3 4 8 8 4 6 5 5 3 5 5 2 2 4 4 5 3 1 4 8 14 2 4 3 3 4 6 3 1 3 5 2 4 6
38 37 37 36 35 33 32 30 29 28 25 6 3 3 4 5 2 5 4 6 5 2 3 3 3 2 3 3 4 3 3 1 2 3 7 6 5 4 4 3 4 1 7 4 3 2 5
40 40 39 38 36 35 33 31 29 27 26 8 3 2 4 4 1 1 1 5 2 2 4 4 5 4 4 5 4 4 2 4 1 4 2 1 2 1 2 5 3 4 1 3 3 2 1
40 39 40 39 36 35 34 32 30 28 27 11 4 2 2 6 3 2 2 2 3 2 5 1 3 2 3 5 1 2 1 1 2 3 2 2 5 3 5 4 1 2 2 0 2 2 0
Wind_Direction
236 231 205 237 288 342 344 358 340 340 336 335 333 327 334 329 318 310 302 286 289 299 311 324 331 335 8 9 262 330 354 353 37 57 63 88 38 141 182 306 337 273 270 291 296 296 298
226 214 211 229 261 293 323 333 336 341 334 329 333 343 338 333 327 319 302 302 288 296 310 320 326 344 65 314 200 95 46 16 29 36 33 33 129 293 3 356 323 337 314 288 288 296 267
207 209 220 230 238 265 304 325 335 335 331 325 352 347 344 348 352 345 333 312 298 309 312 316 323 41 267 255 170 236 349 199 151 51 38 15 331 56 8 318 341 311 308 307 270 217 253
212 222 236 238 231 229 288 316 328 335 317 343 346 352 351 356 358 358 355 342 321 307 315 306 329 71 255 275 306 311 181 78 205 207 170 325 268 100 126 303 6 18 320 267 168 187 217
219 220 233 239 239 217 282 311 321 325 316 348 352 354 355 356 353 351 341 321 301 311 298 296 350 110 271 324 325 344 173 133 78 46 86 37 54 99 66 110 351 217 225 220 258 242 232
212 211 221 227 212 222 247 282 309 314 312 351 0 355 353 353 346 338 333 332 242 107 48 5 60 310 282 336 313 39 358 120 106 127 76 85 82 119 182 143 230 190 229 225 217 209 225
219 211 217 217 214 220 237 272 301 307 321 348 350 352 351 346 338 331 359 359 10 9 34 199 273 230 357 326 330 281 183 113 108 75 180 157 190 216 212 216 234 47 342 283 351 298 323
223 211 212 203 211 215 230 248 284 298 314 334 342 343 347 341 340 4 44 63 126 175 312 282 271 277 261 126 295 262 152 233 195 235 159 200 255 250 212 209 237 255 255 260 297 274 279
208 217 214 221 210 214 227 239 270 288 303 322 334 335 345 338 345 31 25 106 130 94 327 298 217 236 280 155 223 252 173 206 237 234 207 225 246 189 191 186 223 238 241 263 237 325 283
211 212 209 217 207 205 218 227 260 275 297 311 323 336 344 341 55 301 30 89 77 110 35 295 339 316 261 248 261 207 193 189 233 279 237 251 257 249 190 224 216 254 221 242 235 202 240
213 205 203 207 208 201 204 220 245 267 283 301 321 346 351 38 223 8 324 46 87 94 39 282 337 304 298 234 301 80 142 132 233 211 179 235 195 214 230 229 190 233 194 205 214 230 273
205 204 201 200 206 188 201 217 237 261 280 290 321 0 19 19 5 266 59 78 53 43 275 337 339 337 349 212 226 260 194 234 327 253 224 246 233 221 225 226 207 305 236 215 229 214 235
203 197 199 196 194 185 200 219 232 247 264 276 306 344 32 120 255 63 63 45 37 107 322 321 332 322 316 270 295 216 228 188 240 281 228 226 238 228 217 227 207 203 164 203 211 201 242
200 194 189 187 185 189 200 212 228 237 252 253 357 53 11 192 293 58 56 49 73 238 245 319 317 323 335 338 279 308 274 264 238 244 301 275 305 186 193 210 193 197 185 173 190 220 246
198 192 187 188 186 189 201 206 212 223 230 161 94 15 42 328 100 61 72 54 199 203 217 357 336 31 315 281 273 329 256 227 254 178 267 294 260 279 197 205 169 156 210 213 334 235 260
195 192 186 187 186 184 193 201 203 202 195 147 98 73 335 306 99 64 73 232 193 206 199 264 24 113 301 312 317 343 290 147 349 239 215 289 288 244 170 100 207 211 160 145 186 294 264
194 190 186 184 187 182 185 194 197 195 169 140 68 77 276 318 65 57 150 224 247 234 193 154 263 282 269 299 296 302 305 320 32 317 307 236 236 297 172 195 168 184 192 220 163 227 312
194 188 185 181 183 180 181 187 194 190 152 88 117 64 296 347 61 38 187 203 219 253 164 225 256 238 262 313 274 267 268 272 310 325 318 207 287 273 243 157 245 190 184 251 168 186 187
191 190 186 179 182 179 180 183 188 186 161 126 125 151 306 83 129 284 294 286 281 228 196 194 272 220 193 265 290 261 300 237 297 340 341 341 254 304 334 116 137 213 214 208 270 341 205
189 190 187 177 183 181 180 180 186 182 165 93 106 96 335 63 1 136 171 251 256 220 232 202 266 234 276 284 231 287 290 302 320 292 326 311 266 283 325 323 318 245 194 192 208 211 207
190 187 185 178 186 179 177 183 184 183 166 99 47 235 201 186 255 173 175 177 183 252 234 188 272 193 244 289 315 259 305 299 294 17 328 324 276 289 278 109 61 29 9 338 214 279 288
188 186 183 181 182 182 175 180 187 176 156 91 138 143 348 126 138 125 222 242 199 212 184 220 191 193 218 245 204 267 313 291 292 319 312 315 301 331 279 165 68 46 25 29 37 355 57
188 186 180 180 185 179 181 178 185 168 151 131 191 12 110 145 120 110 222 208 209 169 223 219 183 143 247 249 251 250 241 255 271 297 319 295 325 335 298 342 48 34 9 14 39 23 351
186 184 181 183 182 181 180 179 187 174 161 129 179 122 99 219 169 209 225 191 196 212 244 235 169 157 243 308 273 245 250 252 254 268 266 288 315 316 289 348 51 232 337 322 46 22 16
186 184 183 181 183 182 181 181 187 179 168 109 149 133 137 137 157 206 213 197 130 354 251 259 234 199 337 3 347 2 342 17 318 259 292 260 309 308 91 14 116 127 0 338 7 10 11
186 186 182 180 184 181 181 181 187 180 175 103 142 132 114 124 234 116 149 177 174 199 335 264 293 303 74 65 55 86 255 236 311 331 353 355 346 123 13 97 117 203 218 169 324 49 345
187 185 181 178 181 181 182 181 184 180 174 130 131 167 98 115 257 142 166 175 144 121 172 283 307 64 39 61 77 137 257 265 324 315 336 341 348 43 3 77 306 295 309 139 64 153 249
186 183 181 178 180 179 182 181 180 180 169 136 132 155 125 115 172 208 103 130 114 143 146 228 44 342 45 59 111 225 139 245 303 241 199 298 93 271 76 58 336 24 2 122 155 204 153
188 184 180 176 178 177 180 179 175 177 164 132 120 123 93 79 152 88 59 52 330 129 134 110 175 157 165 102 175 130 307 348 167 282 264 286 187 215 179 214 349 328 57 70 199 153 273